TimeCDT,TemperatureF,Dew PointF,Humidity,Sea Level PressureIn,VisibilityMPH,Wind Direction,Wind SpeedMPH,Gust SpeedMPH,PrecipitationIn,Events,Conditions,WindDirDegrees,DateUTC
12:54 AM,61.0,57.9,90,29.94,8.0,Calm,Calm,-,N/A,,Clear,0,2012-09-17 05:54:00
1:54 AM,60.1,57.0,90,29.92,6.0,South,8.1,-,N/A,,Clear,170,2012-09-17 06:54:00
2:54 AM,59.0,55.9,90,29.91,5.0,South,4.6,-,N/A,,Clear,180,2012-09-17 07:54:00
3:54 AM,60.1,57.0,90,29.91,6.0,Calm,Calm,-,N/A,,Mostly Cloudy,0,2012-09-17 08:54:00
4:54 AM,61.0,57.9,90,29.91,7.0,Calm,Calm,-,N/A,,Overcast,0,2012-09-17 09:54:00
5:54 AM,61.0,57.9,90,29.92,7.0,WNW,4.6,-,N/A,,Overcast,300,2012-09-17 10:54:00
6:41 AM,60.8,57.2,88,29.92,6.0,Calm,Calm,-,N/A,,Mostly Cloudy,0,2012-09-17 11:41:00
6:54 AM,61.0,57.9,90,29.91,7.0,Calm,Calm,-,N/A,,Overcast,0,2012-09-17 11:54:00
7:54 AM,62.1,57.9,86,29.91,5.0,Variable,3.5,-,N/A,,Overcast,0,2012-09-17 12:54:00
8:20 AM,62.6,59.0,88,29.92,5.0,NW,6.9,-,N/A,,Overcast,310,2012-09-17 13:20:00
8:44 AM,62.6,57.2,82,29.91,8.0,NNW,8.1,-,N/A,,Overcast,330,2012-09-17 13:44:00
8:54 AM,63.0,57.0,81,29.90,10.0,NW,5.8,-,N/A,,Mostly Cloudy,320,2012-09-17 13:54:00
9:54 AM,66.0,57.9,75,29.89,10.0,Calm,Calm,-,N/A,,Mostly Cloudy,0,2012-09-17 14:54:00
10:16 AM,66.2,57.2,73,29.91,10.0,NW,9.2,-,N/A,,Overcast,320,2012-09-17 15:16:00
10:54 AM,66.0,55.9,70,29.92,9.0,North,12.7,-,N/A,,Mostly Cloudy,350,2012-09-17 15:54:00
11:54 AM,66.9,48.9,52,29.94,10.0,NNW,15.0,24.2,N/A,,Overcast,340,2012-09-17 16:54:00
12:54 PM,62.1,50.0,65,29.95,10.0,NNW,16.1,21.9,0.00,Rain,Light Rain,340,2012-09-17 17:54:00
1:54 PM,57.0,54.0,89,29.96,3.0,NNW,10.4,-,0.17,Rain,Rain,340,2012-09-17 18:54:00
2:01 PM,57.2,53.6,88,29.97,3.0,North,11.5,-,0.03,Rain,Rain,350,2012-09-17 19:01:00
2:16 PM,55.4,53.6,94,29.96,8.0,NNW,19.6,-,0.05,Rain,Light Rain,340,2012-09-17 19:16:00
2:54 PM,55.0,51.1,86,29.97,10.0,North,10.4,20.7,0.06,,Overcast,350,2012-09-17 19:54:00
3:54 PM,55.9,48.9,77,29.97,10.0,NNW,11.5,-,N/A,,Overcast,340,2012-09-17 20:54:00
4:54 PM,60.1,50.0,69,29.95,10.0,NNW,8.1,17.3,N/A,,Mostly Cloudy,330,2012-09-17 21:54:00
5:54 PM,62.1,45.0,53,29.94,10.0,North,9.2,-,N/A,,Scattered Clouds,350,2012-09-17 22:54:00
6:54 PM,61.0,45.0,56,29.95,10.0,NNW,4.6,-,N/A,,Scattered Clouds,330,2012-09-17 23:54:00
7:54 PM,57.9,41.0,53,29.98,10.0,NNW,6.9,-,N/A,,Scattered Clouds,340,2012-09-18 00:54:00
8:54 PM,55.9,39.9,55,29.98,10.0,NNW,5.8,-,N/A,,Partly Cloudy,340,2012-09-18 01:54:00
9:54 PM,54.0,42.1,64,29.99,10.0,NW,3.5,-,N/A,,Partly Cloudy,320,2012-09-18 02:54:00
10:54 PM,53.1,41.0,64,29.99,10.0,NNW,5.8,-,N/A,,Scattered Clouds,330,2012-09-18 03:54:00
11:54 PM,51.1,44.1,77,30.00,10.0,NW,6.9,-,N/A,,Mostly Cloudy,310,2012-09-18 04:54:00